This demonstration page uses our WeatherBlox Daily Observations layout. Learn more.

Left ArrowRight Arrow

41.86663, -103.66717

Hourly Observations for November 8, 2016

Temp ( °F °C ) Dew Point ( °F °C ) Humidity (%) Winds ( mph kmh ) Pressure ( in mb ) Visibility ( mi km ) Precip ( " mm )
12:53 am 00:53 Clear 32 undefined 23 -5 69 69 N 8 13 30.45 1031 10 16 N/A
1:53 am 01:53 Clear 31 -0.6 23 -5 72 72 NNW 3 6 30.45 1031 10 16 N/A
2:53 am 02:53 Clear 28 -2.2 22 -5.6 78 78 N N/A 30.47 1032 10 16 N/A
3:53 am 03:53 Clear 28 -2.2 21 -6.1 75 75 N N/A 30.48 1032 10 16 N/A
4:53 am 04:53 Clear 29 -1.7 22 -5.6 75 75 ESE 5 7 30.50 1033 10 16 N/A
5:53 am 05:53 Clear 28 -2.2 21 -6.1 75 75 N N/A 30.51 1033 10 16 N/A
6:53 am 06:53 Sunny 30 -1.1 22 -5.6 72 72 E 7 11 30.52 1034 10 16 N/A
7:53 am 07:53 Sunny 36 2.2 25 -3.9 64 64 N N/A 30.55 1035 10 16 N/A
8:53 am 08:53 Sunny 39 3.9 26 -3.3 60 60 N N/A 30.56 1035 9 14 N/A
9:53 am 09:53 Sunny 46 7.8 28 -2.2 50 50 VRB 3 6 30.53 1034 10 16 N/A
10:53 am 10:53 Sunny 53 11.7 28 -2.2 38 38 VRB 3 6 30.50 1033 10 16 N/A
11:53 am 11:53 Sunny 60 15.6 28 -2.2 30 30 N N/A 30.46 1032 10 16 N/A
12:53 pm 12:53 Sunny 62 16.7 28 -2.2 28 28 E 6 9 30.43 1031 10 16 N/A
1:53 pm 13:53 Sunny 63 17.2 28 -2.2 27 27 N N/A 30.40 1030 10 16 N/A
2:53 pm 14:53 Sunny 65 18.3 28 -2.2 25 25 N N/A 30.39 1029 10 16 N/A
3:53 pm 15:53 Sunny 64 17.8 28 -2.2 26 26 SE 3 6 30.38 1029 10 16 N/A
4:53 pm 16:53 Clear 51 10.6 28 -2.2 41 41 E 9 15 30.42 1030 9 14 N/A
5:53 pm 17:53 Clear 50 10 28 -2.2 43 43 SE 7 11 30.43 1031 10 16 N/A
6:53 pm 18:53 Clear 43 6.1 27 -2.8 53 53 ESE 9 15 30.44 1031 10 16 N/A
7:53 pm 19:53 Clear 41 5 26 -3.3 55 55 E 6 9 30.43 1031 10 16 N/A
8:53 pm 20:53 Clear 40 4.4 26 -3.3 58 58 E 6 9 30.42 1030 10 16 N/A
9:53 pm 21:53 Clear 40 4.4 26 -3.3 58 58 E 9 15 30.41 1030 10 16 N/A
10:53 pm 22:53 Clear 38 3.3 26 -3.3 62 62 E 9 15 30.38 1029 10 16 N/A
11:53 pm 23:53 Clear 38 3.3 26 -3.3 62 62 ENE 8 13 30.36 1028 10 16 N/A

Powered by AerisWeather